Flag for U.S.A. Weather past 2 weeks in Lafayette, Indiana, U.S.A.

Now
33 °F

Light snow. Fog.


Feels Like: 25 °F
Forecast: 24 / 36 °F
Wind: 9 mph from Northeast

Location: Purdue University Airport

Current Time: Jan 25, 2015 at 1:59:23 PM

Latest Report: Jan 25, 2015 at 1:01 PM


Visibility: 1 mi

Pressure: 29.67 "Hg

Humidity: 96%

Dew point: 32 °F

Location of LafayetteLocation

Historic Weather in Lafayette — Graph

°F

Lafayette temperature yesterday

Maximum temperature yesterday: 43 °F (at 3:54 PM)
Minimum temperature yesterday: 24 °F (at 3:54 AM)
Average temperature yesterday: 32 °F

Past Weeks' High & Low Weather Summary

 TemperatureHumidityPressure
High45 °F (Jan 17, 1:54 PM)100% (Jan 11, 9:54 PM)30.72 "Hg (Jan 11, 9:54 PM)
Low-6 °F (Jan 14, 7:54 AM)51% (Jan 10, 2:54 PM)29.65 "Hg (Jan 25, 5:54 AM)
Average27 °F82%30.15 "Hg
* Reported Jan 10 1:54 PM — Jan 25 1:01 PM, Lafayette, Weather by CustomWeather, © 2014

Note: Actual official high and low records may vary slightly from our data, if they occured in-between our weather recording intervals... More about our weather records

Advertising

Lafayette weather history for previous 24 hours

 ConditionsComfort  
Time TempWeatherWind HumidityBarometerVisibility
1:01 PM
Jan 25
33 °FLight snow. Fog.9 mph96%29.67 "Hg1 mi
11:54 AM35 °FLight rain. Fog.8 mph96%29.70 "Hg2 mi
10:54 AM34 °FLight rain. Fog.10 mph100%29.67 "Hg3 mi
9:54 AM34 °FLight rain. Fog.8 mph97%29.68 "Hg4 mi
8:54 AM34 °FFog.6 mph92%29.68 "Hg6 mi
7:54 AM34 °FMostly cloudy.6 mph88%29.69 "Hg10 mi
6:54 AM32 °FOvercast.5 mph92%29.67 "Hg9 mi
5:54 AM32 °FOvercast.5 mph92%29.65 "Hg10 mi
4:54 AM31 °FPassing clouds.3 mph96%29.66 "Hg10 mi
3:54 AM32 °FClear.No wind96%29.67 "Hg10 mi
2:54 AM31 °FClear.No wind96%29.69 "Hg9 mi
1:54 AM32 °FClear.No wind96%29.69 "Hg8 mi
12:54 AM35 °FClear.No wind88%29.71 "Hg10 mi
11:54 PM
Jan 24
34 °FPassing clouds.5 mph92%29.71 "Hg10 mi
10:54 PM34 °FClear.3 mph92%29.72 "Hg10 mi
9:54 PM34 °FClear.No wind92%29.73 "Hg9 mi
8:54 PM35 °FClear.No wind92%29.74 "Hg10 mi
7:54 PM35 °FPassing clouds.3 mph92%29.74 "Hg10 mi
6:54 PM37 °FPassing clouds.7 mph86%29.74 "Hg10 mi
5:54 PM41 °FOvercast.7 mph76%29.71 "Hg10 mi
4:54 PM42 °FOvercast.13 mph73%29.70 "Hg10 mi
3:54 PM43 °FPassing clouds.10 mph68%29.69 "Hg10 mi
2:54 PM42 °FPassing clouds.12 mph68%29.69 "Hg10 mi
1:54 PM42 °FPassing clouds.12 mph71%29.72 "Hg10 mi
Weather by CustomWeather, © 2014

See weather overviewHow to use our weather pages